User: anonymous   Login
Location: Dehesa de la Cepeda
(40.6574°N, 4.3013°W)
Time: 03:30:04
(UTC+00:00)
Language:

Courier 1B Rocket - Orbit

View from above orbital plane
View from above orbital plane
View from above satellite
View from above satellite

Ground track
Ground track

The orbit data is extracted from the following two-line orbital elements,

1 00059U 60013B   21217.76521224  .00000106  00000-0  21538-4 0  9996
2 00059  28.2471 249.9666 0189163 163.5879 197.0892 13.52986676  2392
Epoch (UTC): 05 August 2021 18:21:54
Eccentricity: 0.0189163
inclination: 28.2471°
perigee height: 920 km
apogee height: 1202 km
right ascension of ascending node: 249.9666°
argument of perigee: 163.5879°
revolutions per day: 13.52986676
mean anomaly at epoch: 197.0892°
orbit number at epoch: 239

The dashed part of the orbit path shows where the satellite is in the earth's shadow,  

DLR